Location: Unspecified
(0.0000°N, 0.0000°E)
Time: 11:16:00
(UTC+00:00)

Vanguard 1 - Pass Details

Date: 29 November 2019
Orbit: 651 x 3832 km, 34.3° (Epoch: 13 December)

Event Time Altitude Azimuth Distance (km) Brightness Sun altitude
Rises 23:10:08 0° 212° (SSW) 5,605 14.3 -66.5°
Reaches altitude 10° 23:15:17 10° 194° (SSW) 5,158 13.9 -67.0°
Maximum altitude 23:25:59 20° 153° (SSE) 5,294 13.8 -67.8°
Drops below altitude 10° 23:39:45 10° 113° (ESE) 6,803 14.3 -68.3°
Sets 23:48:18 0° 98° (E) 7,973 14.7 -68.4°
